1st Responders/1st Detectors/Storm Spotters Weather Summary for Warren County, KY

Forecast Maps


Reg. NEXRAD Animation


National Fire Danger: Day 1 & 2 Map

Current NWS Watch/Warnings

SPC Convective Day 1 Outlook


Day 2 Outlook

(Click images to enlarge|Page will refresh every 5 minutes)
UK Ag. Weather Center Desktop Severe Weather Service[HERE]
Warren County, KY Hazardous Weather Outlook Webcast
(9 AM to 9 PM Mon-Fri)
[Fast]
[Dial-up]


UKAWC 1st Detectors/1st Responders Precision Weather Forecast For WARREN County, Kentucky
(based on the NWS County Digital Forecast)

ISSUED AT 18:00 UTC ON TUESDAY OCT 23 2018
DAY TUESDAY
CDT 3HR 2P 3P 4P 5P 6P
MAX/MIN -- -- -- -- 65°
TEMP 65° 65° 65° 61° 58°
SKY COVER 2% 1% 0% 0% 1%
Clouds
DEW PT 45° 45° 45° 45° 45°
RH 48% 48% 50% 55% 60%
POP 12HR -- -- -- -- --
RAIN/SNOW (liq.equ) -- -- -- -- --
SNOWFALL -- -- -- -- --
WIND SPEED(MPH) 6 7 7 7 6
WIND Gust(MPH) 7 8 8 8 7
WIND DIR NW NW NW NW N
DEW -- -- -- -- --
HeatIndex 65 65 65 61 58
Rain -- -- -- -- --
WIND CHILL -- -- -- -- --
SPRAY COND
DRY COND
LIVESTOCK COLDSTRESS
LIVESTOCK HEATSTRESS 63.23 63.23 63.30 60.46 58.18



DAY WEDNESDAY THURSDAY FRIDAY SATURDAY SUNDAY MONDAY
CDT 6HR 7P 8P 9P 10P 11P MIDN 1A 2A 3A 4A 5A 6A 7A 8A 9A 10A 11A NOON 1P 2P 3P 4P 5P 6P 7P 8P 9P 10P 11P MIDN 1A 4A 7A 10A 1P 4P 7P 1A 7A 1P 7P 1A 7A 1P 7P 1A 7A 1P 7P 1A 7A 1P 7P
MAX/MIN -- -- -- -- -- -- -- -- -- -- -- -- 36° -- -- -- -- -- -- -- -- -- -- 59° -- -- -- -- -- -- -- -- 40° -- -- 54° -- -- 45° 52° -- -- 43° 54° -- -- 45° 54° -- -- 43° 56° --
TEMP 54° 50° 49° 47° 45° 43° 41° 40° 40° 38° 36° 36° 36° 38° 43° 49° 52° 56° 58° 58° 59° 58° 56° 54° 49° 47° 45° 45° 43° 43° 41° 40° 40° 45° 52° 54° 49° 45° 45° 52° 49° 45° 43° 54° 52° 47° 45° 54° 50° 47° 43° 56° 49°
SKY COVER 1% 1% 2% 2% 3% 2% 1% 1% 1% 1% 3% 4% 6% 6% 5% 5% 6% 6% 7% 7% 6% 6% 11% 21% 25% 27% 29% 30% 33% 39% 42% 45% 71% 68% 86% 85% 85% 91% 91% 92% 90% 78% 71% 74% 81% 82% 81% 72% 70% 56% 47% 57% 42%
Clouds
DEW PT 43° 41° 40° 38° 38° 36° 36° 36° 36° 36° 36° 36° 36° 36° 38° 40° 40° 40° 38° 38° 38° 38° 38° 38° 38° 38° 38° 36° 36° 36° 34° 34° 34° 36° 40° 43° 43° 41° 43° 47° 45° 43° 41° 43° 43° 45° 43° 45° 43° 43° 40° 41° 40°
RH 65% 71% 70% 73% 76% 78% 81% 85% 88% 92% 96% 100% 99% 92% 82% 70% 61% 54% 49% 47% 45% 46% 50% 56% 65% 67% 73% 73% 73% 75% 75% 79% 78% 70% 63% 66% 76% 85% 92% 83% 86% 92% 92% 68% 74% 92% 89% 68% 76% 86% 85% 59% 71%
POP 12HR 0% -- -- -- -- -- -- -- -- -- -- -- 0% -- -- -- -- -- -- -- -- -- -- -- 0% -- -- -- -- -- -- -- 1% -- -- -- 25% -- 76% -- 77% -- 21% -- 18% -- 30% -- 37% -- 32% -- 12%
RAIN/SNOW (liq.equ) 0.00in -- -- -- -- -- 0.00in -- -- -- -- -- 0.00in -- -- -- -- -- 0.00in -- -- -- -- -- 0.00in -- -- -- -- -- 0.00in -- 0.00in -- 0.00in -- 0.02in -- -- -- -- -- -- -- -- -- -- -- -- -- -- -- --
SNOWFALL 0in -- -- -- -- -- 0in -- -- -- -- -- 0in -- -- -- -- -- 0in -- -- -- -- -- 0in -- -- -- -- -- 0in -- 0in -- 0in -- 0in -- -- -- -- -- -- -- -- -- -- -- -- -- -- -- --
WIND SPEED(MPH) 5 5 5 5 5 5 5 5 6 6 6 5 5 6 7 7 7 7 7 7 7 7 7 7 6 6 7 7 7 6 6 7 6 7 7 6 6 2 2 2 2 1 1 7 5 2 5 7 7 6 7 8 6
WIND DIR N N N N N N N N N N N N NE NE NE NE NE NE NE NE NE NE NE NE NE NE NE NE NE NE NE NE E E E E E E NE NE N N W W W SW W W W W W NW W
HeatIndex 54 50 49 47 42 40 39 38 35 34 32 32 32 34 40 49 52 56 58 58 59 58 56 54 49 47 45 41 40 39 38 36 35 45 52 54 49 45 43 52 49 45 43 54 52 47 45 54 50 47 40 56 49
Rain -- -- -- -- -- -- -- -- -- -- -- -- -- -- -- -- -- -- -- -- -- -- -- -- -- -- -- -- -- -- -- -- -- -- Chance Chance Chance Definite Definite Chance Slight Chance -- Slight Chance Slight Chance Chance Chance Slight Chance Chance Chance -- -- -- --
WIND CHILL -- -- -- -- 43° 40° 38° 37° 36° 34° 31° 32° 32° 34° 39° -- -- -- -- -- -- -- -- -- -- -- 41° 41° 39° 39° 37° 35° 36° 41° -- -- -- -- -- -- -- -- -- -- -- -- 43° -- -- -- 39° -- --
SPRAY COND
DRY COND
LIVESTOCK COLDSTRESS
LIVESTOCK HEATSTRESS 54.92 51.40 50.62 48.75 46.82 44.91 42.86 41.55 41.24 38.92 36.50 36.00 36.13 38.92 44.56 50.62 53.46 56.71 58.22 58.23 58.94 58.24 56.77 55.16 50.89 49.14 47.05 47.05 45.35 45.17 43.45 42.17 42.27 47.28 53.38 54.90 50.29 46.14 45.61 52.64 49.75 45.61 43.70 54.84 52.97 47.52 45.83 54.84 51.16 47.91 44.30 56.63 50.56

Click on individual weather variable above in left-hand column (ie., TEMP, RH, QPF 12HR) to view state forecast maps






NWS 48 Hr. Forecast Maps,

Regional Hourly Observations For WARREN County, Kentucky
Issued at 200 PM EDT TUE OCT 23 2018
WESTERN AND SOUTH CENTRAL KENTUCKY
  
CITY           SKY/WX    TMP DP  RH WIND       PRES   REMARKS
PADUCAH        FAIR      71  43  36 N8        30.24F                  
HENDERSON      FAIR      66  36  32 NW8       30.24F                  
OWENSBORO      FAIR      67  40  37 N7        30.23F                  
HOPKINSVILLE   FAIR      65  46  50 CALM      30.23F                  
BOWLING GREEN  FAIR      66  46  48 CALM      30.23F                  
GLASGOW        FAIR      66  43  42 CALM      30.23F                  


Current NOWCAST not available:
Nowcasts are not issued routinely during fair weather. Only when
precipitation or other significant weather is occuring in this county will these
forecasts be issued. Currently, there is no short term forecast in effect.


Fire Weather Forecast For WARREN County, KY
Provided by the National Weather Service:

Issued at: Tue Oct 23 14:05:01 EDT 2018

303 AM EDT Tue Oct 23 2018 /203 AM CDT Tue Oct 23 2018/

                      Today        Tonight      Wed          

CLOUD COVER           MClear       Clear        MClear       
PRECIP TYPE           None         None         None         
CHANCE PRECIP (%)     0            0            0            
TEMP (24H TREND)      66 (+2)      34 (-7)      59           
RH % (24H TREND)      41 (+9)      100 (+7)     43           
20FTWND-VAL/AM(MPH)   Lgt/Var                   NE  5        
20FTWND-RDG/PM(MPH)   NW  5        Lgt/Var      NE  6        
PRECIP AMOUNT         0.00         0.00         0.00         
MIXING HGT(FT-AGL/MSL)3988                      3718         
TRANSPORT WND (MPH)   NW 13                     NE 13        
VENT RATE (KT-FT)     51740                     44440        
DISPERSION            Good                      Fair         
DSI                   SLGT UNSTBL  SLGT UNSTBL  STBL         
LAL                   1            1            1            
HAINES INDEX          4            4            4            
ADI EARLY             16 GEN POOR  5 VERY POOR  40 FAIR      
ADI LATE              44 GEN GOOD  6 VERY POOR  46 GEN GOOD  
MAX LVORI EARLY       5            4            7            
MAX LVORI LATE        2            8            3            

REMARKS...ADI IS ATMOSPHERIC DISPERSION INDEX BY LAVDAS.        
LVORI IS LOW VISIBILITY OCCURRENCE RISK INDEX.

.THURSDAY...Mostly cloudy. A 20 percent chance of rain. Lows in
the upper 30s. Highs in the lower 50s. Northeast winds around
5 mph. 
.FRIDAY...Cloudy with a 50 percent chance of rain. Lows in the
mid 40s. Highs in the lower 50s. East winds around 5 mph. 
.SATURDAY...Mostly cloudy. Lows in the lower 40s. Highs in the
mid 50s. West winds up to 5 mph. 
.SUNDAY...Mostly cloudy with a 50 percent chance of rain. Lows in
the lower 40s. Highs in the mid 50s. West winds up to 10 mph. 
.MONDAY...Mostly cloudy. A 40 percent chance of rain. Lows in the
lower 40s. Highs in the mid 50s. West winds 5 to 10 mph. 

SPC's Fire Weather Web Tool (Excellent!), SPC's Fire Weather Outlooks, NWS Fire Weather WEB, Fire Danger Class Map,
Keetch-Byram Drought Index, ROMAN Web, Haines Index ,
WFAS's 10-hr Dead Fuel Moist., WFAS's 100-hr Dead Fuel Moist., Probablity of Ignition, Visual blackness Map, Palmer Drought Index, HPC's Rainfall Forecast Maps


Hazardous Weather Outlook For WARREN County, Kentucky
238 PM EDT Tue Oct 23 2018 /138 PM CDT Tue Oct 23 2018/

 DAY ONE  Tonight.

No hazardous weather is expected at this time.

 DAYS TWO THROUGH SEVEN  Wednesday through Monday.

No hazardous weather is expected at this time.

 SPOTTER INFORMATION STATEMENT  

Spotter activation will not be needed.

Latest WARREN County, Kentucky Watches, Warnings and Advisories.
Additional Drought Info.: UKAWC Drought Page, Kentucky Drought Watch


7-Day Forecast For WARREN County, KY

TODAY
Mostly sunny. Highs in the mid 60s. Southwest winds around 5 mph shifting to the northwest in the afternoon.

TONIGHT
Clear. Lows in the mid 30s. North winds 5 to 10 mph.

WEDNESDAY
Mostly sunny. Highs around 60. Northeast winds 5 to 10 mph.

WEDNESDAY NIGHT
Partly cloudy. Lows around 40. Northeast winds 5 to 10 mph.

THURSDAY
Mostly cloudy with a 30 percent chance of rain. Highs in the mid 50s. East winds 5 to 10 mph.

THURSDAY NIGHT
Rain. Lows in the mid 40s. Chance of rain 80 percent.

FRIDAY
Rain. Highs in the lower 50s. Chance of rain 80 percent.

FRIDAY NIGHT
Mostly cloudy with a 20 percent chance of rain. Lows in the lower 40s.

SATURDAY
Mostly cloudy with a 20 percent chance of rain. Highs in the mid 50s.

SATURDAY NIGHT
Mostly cloudy with a 30 percent chance of rain. Lows in the mid 40s.

SUNDAY
Mostly cloudy with a 40 percent chance of rain. Highs in the mid 50s.

SUNDAY NIGHT
Partly cloudy with a 40 percent chance of rain. Lows in the lower 40s.

MONDAY
Partly cloudy. Highs in the mid 50s.

Ag Weather Center, Department of Biosystems & Agricultural Engineering, University of Kentucky